Starlink 30787

operational
NORAD ID: 58128 Int'l Des: 2023-162 Owner: SPXS Country: US Constellation: starlink
LEOCIRCULAR

Über Starlink 30787

Beschreibung wird geladen...

Live-Position

3D-Globus wird geladen...

Nächste Überflüge

Höhenverlauf

Altitude vs Time

uPlot chart will show altitude changes over time

Zweizeiliger Elementsatz

1 58128U 23162L 25350.93349206 .00000419 00000-0 46110-4 0 9999
2 58128 43.0045 222.5661 0001120 274.4763 85.5951 15.02547961119850
Epoch: 16. Dez. 2025 • Age: 13 hours

Aktueller Status

Höhe 559.8 km
Geschwindigkeit 7.59 km/s
Subsatellitenpunkt 27.15°N, 103.34°E
Startdatum 22. Okt. 2023
Alter 2.1 years
Typ internet

Technische Details

Klassifizierung Payload
Masse 730.00 kg
Trockenmasse 700.00 kg
Gesamtmasse 730.00 kg
Länge 0.30 m
Durchmesser 4.10 m
Spannweite 29.00 m
Form Box + pan
Hersteller SPXS
Bus-Typ Starlink V2M
Phasenstatus In Orbit
Besitzer/Staat SPXS/US

Große Konstellationen

Loading constellations...